SES-8

Last updated on Fri Dec 19 2025 00:02:51 GMT+0000 (Coordinated Universal Time)

1 39460U 13071A 25352.64966071 -.00000245 00000+0 00000+0 0 9990 2 39460 0.0237 290.4912 0000426 352.5130 133.3839 1.00272841 42623
UTC large
Height (km)
Speed (km/s)
/
Latitude / Longitude
Inclination (degrees)
Orbital Period (minutes)
Azimuth
Elevation
Range (km)
Doppler Factor

Next 0 passes for location: London (51.5072 / 0.1276)

Sorry there are no passes over London.